Regional Weather Roundup
Issued by NWS

Home | Current Version | Previous Version | Text Only | Print | Product List | Glossary Off
Versions: 1 2 3 4 5 6 7 8 9 10 11 12 13 14 15 16 17 18 19 20 21 22 23 24 25 26 27 28 29 30 31 32 33 34 35 36 37 38 39 40 41 42 43 44 45 46 47 48 49 50

000
ASUS43 KMKX 300300
RWRWI

WISCONSIN REGIONAL WEATHER ROUNDUP
NATIONAL WEATHER SERVICE MILWAUKEE/SULLIVAN WI
1000 PM CDT SAT AUG 29 2015

NOTE: "FAIR" INDICATES FEW OR NO CLOUDS BELOW 12,000 FEET WITH NO
SIGNIFICANT WEATHER AND/OR OBSTRUCTIONS TO VISIBILITY.

WIZ001-002-006>008-014>016-023>028-300400-
NORTHWEST WISCONSIN

CITY           SKY/WX    TMP DP  RH WIND       PRES   REMARKS
SUPERIOR ARPT  CLEAR     62  62  98 CALM      29.98S
ASHLAND        CLEAR     62  62 100 S3        30.00S
HAYWARD        PTCLDY    63  60  90 CALM      30.03R
SIREN          CLEAR     64  62  93 CALM      30.02S
CUMBERLAND     CLEAR     61  59  94 S5        30.03F
RICE LAKE      CLEAR     62  59  91 S5        30.04F
CHETEK         CLEAR    N/A N/A N/A CALM      30.04S
LADYSMITH      PTCLDY    62  60  94 CALM      30.06S
EAU CLAIRE     NOT AVBL
MENOMONIE      CLEAR     61  60  96 CALM      30.04S
NEW RICHMOND   PTCLDY    63  63  99 S5        30.03S
OSCEOLA        CLEAR     61  61 100 SE3       30.04F
$$

WIZ003>005-009-010-017-018-300400-
NORTH CENTRAL WISCONSIN

CITY           SKY/WX    TMP DP  RH WIND       PRES   REMARKS
MANITOWISH WTR CLEAR     61  61 100 CALM      30.04S
ARBOR VITAE    CLEAR     64  62  91 SW6       30.05S
WOODRUFF       CLEAR     64  62  91 SW6       30.05S
RHINELANDER    CLEAR     62  59  90 SW6       30.07S
EAGLE RIVER    CLEAR     63  58  81 S3        30.05S
LAND O LAKES   CLEAR     63  60  88 CALM      30.05S
PHILLIPS       CLEAR     62  61  96 S3        30.04S
TOMAHAWK       FAIR      59  58  95 CALM      30.07R FOG
MEDFORD        PTCLDY    57  56  99 S6        30.07R FOG
MERRILL        PTCLDY    58  58 100 CALM      30.07S FOG
$$

WIZ029-030-035-036-043>047-300400-
CENTRAL WISCONSIN

CITY           SKY/WX    TMP DP  RH WIND       PRES   REMARKS
WAUSAU         PTCLDY    60  59  96 CALM      30.05S
MOSINEE        PTCLDY    57  57 100 CALM      30.08F
MARSHFIELD     MOCLDY    61  57  87 S5        30.07S
STEVENS POINT  CLOUDY    62  58  89 CALM      30.08S
WAUPACA        PTCLDY    63  62  96 CALM      30.07R
WAUTOMA        NOT AVBL
WISC RAPIDS    CLOUDY    64  59  83 CALM      30.08S
CAMP DOUGLAS   NOT AVBL
$$

WIZ011>013-019>022-031-037>040-048>050-300400-
NORTHEAST WISCONSIN

CITY           SKY/WX    TMP DP  RH WIND       PRES   REMARKS
ANTIGO         CLEAR     56  56 100 S3        30.08S FOG
SHAWANO        FOG       60  59  94 CALM      30.07R VSB<1/4
OCONTO         PTCLDY    57  57 100 CALM      30.05S
STURGEON BAY   CLEAR     61  57  88 S5        30.08F
GREEN BAY      CLOUDY    63  61  93 S7        30.06S
MANITOWOC      FOG       57  57 100 MISG      30.07F VSB 1/2
APPLETON       CLOUDY    64  63  94 VRB5      30.05R
CLINTONVILLE   CLEAR     59  57  94 CALM      30.06S FOG
OSHKOSH        CLOUDY    65  62  90 S3        30.06S
$$

WIZ032>034-041-042-053>061-300400-
SOUTHWEST WISCONSIN

CITY           SKY/WX    TMP DP  RH WIND       PRES   REMARKS
LA CROSSE      CLOUDY    67  61  81 E5        30.05R
SPARTA         CLOUDY    65  60  83 CALM      30.07R
VIROQUA          N/A     63  63 100 E3        30.07R
BOSCOBEL       CLOUDY    67  64  90 CALM      30.06R
PRAIRIE DU CHI CLOUDY    66  62  87 CALM      30.05S
PLATTEVILLE    CLOUDY    67  65  93 NE3       30.07S
$$

WIZ056-057-062-063-064-067-068-300400-
SOUTH CENTRAL WISCONSIN

CITY           SKY/WX    TMP DP  RH WIND       PRES   REMARKS
REEDSBURG      CLOUDY    65  63  94 CALM      30.06S
BARABOO/DELLS  CLOUDY    65  61  87 CALM      30.07R
LONE ROCK      NOT AVBL
MINERAL POINT  CLOUDY    68  64  88 CALM      30.08R
MADISON        CLOUDY    65  63  93 CALM      30.05F
MIDDLETON      CLOUDY    66  65  97 CALM      30.07S
WATERTOWN      CLOUDY    64  64 100 CALM      30.06S
MONROE         CLOUDY    64  63  94 NE3       30.07R
JANESVILLE     CLOUDY    66  64  94 CALM      30.06R FOG
$$

WIZ051-052-058>065-066-070>072-300400-
SOUTHEAST WISCONSIN

CITY           SKY/WX    TMP DP  RH WIND       PRES   REMARKS
MILWAUKEE      DRZL/FOG  63  62  97 N6        30.05R VSB 3/4
WAUKESHA       CLOUDY    61  59  94 CALM      30.07R FOG
MILWAUKEE/TIMM CLOUDY    61  59  94 N3        30.07R FOG
RACINE         FOG       63  61  93 N8        30.06S VSB 1
BURLINGTON     CLOUDY    61  61  99 N3        30.06R FOG
KENOSHA        FOG       63  62  97 N5        30.05R VSB 1/2
FOND DU LAC    CLOUDY    65  62  90 SE5       30.07S
SHEBOYGAN      CLOUDY    63  61  93 CALM      30.07S FOG
WEST BEND      CLOUDY    63  59  88 CALM      30.07S FOG
JUNEAU         CLOUDY    64  62  94 CALM      30.08S
$$

LSZ147-162-300400-
LAKE SUPERIOR

STATION/POSITION TIME  TEMP    WIND        PRES    WAVE
                       AIR SEA DIR/SP/G            HT/PER
                 (UTC) (F)     (DEG/KT/KT) (MB)    (FT/S)
W MID LAKE BUOY  0150   59 54  190/  6/  6 1015.1R   1
DEVILS ISLAND    0200   68     210/  6/  6 1015.0R
PORT WING        0200   67     160/  1/  3 1015.6
SAXON HARBOR     0240   65      CALM  /  5 1015.2R
$$

LMZ867-665-643>646-300400-
LAKE MICHIGAN

STATION/POSITION TIME  TEMP    WIND        PRES    WAVE
                       AIR SEA DIR/SP/G            HT/PER
                 (UTC) (F)     (DEG/KT/KT) (MB)    (FT/S)
CHAMBERS ISLAND  0200   63     160/  3/  5 1017.6R
S GREEN BAY BUOY 0200   64 62  150/  8/ 10 1019.0R
N MID LAKE BUOY  0150   64 65  190/ 10/ 10 1017.1R   1
NORTHPORT PIER   0200   62     190/  2/  7 1017.6R
SISTER BAY       0219   62     170/  6/  8   N/A
ALGOMA LAKESHORE 0214             CALM       N/A
SHEBOYGAN LAKESH 0200   59        CALM     1018.5R
PORT WASHINGTON  0200   60     340/  1/  2 1018.6R
ATWATER BUOY     0200   53 50  350/  6/  8 1018.8R
MILWAUKEE LAKESH 0200   61     350/  8/ 10   N/A
S MID LAKE BUOY  0150   68      40/  6/  8 1016.3R
KENOSHA   LAKESH 0200   63     350/  9/ 10 1016.9R
$$

TC  - TEMPERATURE IN CELSIUS
VSB - VISIBILITY IN STATUTE MILES
WCI - WIND CHILL INDEX
HX  - HEAT INDEX




USA.gov is the U.S. government's official web portal to all federal, state and local government web resources and services.